[[{"header":{"parameterUnit":"m.s-1","parameterCategory":1,"la1":30.2992,"la2":30.254,"lo1":-89.0895,"lo2":-89.0443,"dy":0.0025,"dx":0.0025,"nx":19,"ny":19,"refTime":"2026-03-25T09:00:00:Z","depth":0,"parameterNumber":2,"parameterNumberName":"U-component_of_WINDS"},"data":[0,0,0,-2.8878,-2.8879,-2.8929,-2.8929,-2.9011,-2.9012,0,0,0,0,0,0,0,0,0,0,0,-2.8872,-2.8873,-2.8877,-2.8879,-2.8929,-2.8929,-2.901,-2.9012,0,0,0,0,0,0,0,0,0,0,0,-2.8872,-2.8873,-2.8874,-2.8879,-2.8929,-2.8929,-2.901,-2.8967,0,0,0,0,0,0,0,0,0,0,-2.8915,-2.8919,-2.8872,-2.8874,-2.888,-2.8929,-2.8929,-2.8964,-2.8969,-2.8995,0,-2.9019,0,-2.9017,-2.9018,-2.9018,0,0,0,-2.8872,-2.8915,-2.892,-2.8874,-2.888,-2.8929,-2.8905,-2.8967,-2.8973,-2.9002,-2.902,-2.9023,-2.9018,-2.9019,-2.9019,-2.9187,-2.9188,0,0,-2.887,-2.8886,-2.8916,-2.8924,-2.8916,-2.8903,-2.8906,-2.897,-2.8992,-2.9021,-2.9025,-2.9019,-2.9019,-2.902,-2.9186,-2.9187,0,0,0,-2.8866,-2.8885,-2.8888,-2.8921,-2.8929,-2.8905,-2.8908,-2.8989,-2.8988,-2.9025,-2.902,-2.902,-2.9021,-2.9185,-2.9186,-2.9256,0,0,0,-2.8864,-2.8883,-2.8887,-2.8898,-2.8928,-2.8959,-2.8926,-2.8984,-2.8991,-2.902,-2.902,-2.9022,-2.9183,-2.9185,-2.9251,-2.9286,0,0,0,-2.8866,-2.8883,-2.8893,-2.8899,-2.8921,-2.8958,-2.8961,-2.8985,-2.8988,-2.9018,-2.9022,-2.9182,-2.9185,-2.9247,-2.9279,-2.9334,0,0,0,-2.8873,-2.8955,-2.8895,-2.8985,-2.892,-2.9,-2.896,-2.9019,-2.9053,-2.902,-2.9183,-2.9186,-2.9246,-2.9275,-2.933,-2.9383,-2.9407,0,0,-2.8986,-2.897,-2.9022,-2.8969,-2.9063,-2.8991,-2.9097,-2.9113,-2.9101,-2.9159,-2.9163,-2.9253,-2.9279,-2.9333,-2.9536,-2.9555,0,0,0,-2.9063,-2.9101,-2.9122,-2.9155,-2.9169,-2.9184,-2.9181,-2.9188,-2.9236,-2.9134,-2.9288,-2.9303,-2.9334,-2.9359,-2.9375,-2.94,-2.9198,-2.9198,-2.9198,-2.9249,-2.9228,-2.9313,-2.9298,-2.9331,-2.9328,-2.9353,-2.936,-2.9331,-2.9368,-2.9385,-2.951,-2.9539,-2.9551,-2.9579,-2.9412,-2.9412,-2.9412,-2.9412,-2.9413,-2.9463,-2.9421,-2.9488,-2.9466,-2.9523,-2.9524,-2.9501,-2.9551,-2.9496,-2.9522,-2.9463,-2.9573,-2.9595,-2.9417,-2.9417,-2.9416,-2.9415,-2.9415,-2.9531,-2.9551,-2.9557,-2.9602,-2.9639,-2.9623,-2.9672,-2.9651,-2.9632,-2.9658,-2.9674,-2.9672,-2.9668,-2.9667,-2.9668,-2.9668,-2.9668,-2.9669,-2.9669,-2.9652,-2.9655,-2.9699,-2.972,-2.9738,-2.976,-2.9758,-2.9776,-2.979,-2.9771,-2.9771,-2.9738,-2.9587,-2.955,-2.9676,-2.9674,-2.9674,-2.9673,-2.9673,-2.9825,-2.9782,-2.985,-2.9868,-2.9891,-2.993,-2.9902,-2.994,-2.9952,-2.9977,-2.9939,-2.9831,-2.9812,-2.9799,-2.9768,-2.9943,-2.9943,-2.9943,-2.9943,-2.9924,-2.9913,-2.9976,-3.0007,-3.0034,-3.0016,-3.0094,-3.0094,-3.0087,-3.0093,-3.0065,-3.0022,-3.001,-2.9998,-2.9981,-2.9951,-3.0169,-3.0169,-3.0169,-3.0029,-3.002,-3.0089,-3.008,-3.0097,-3.0112,-3.0184,-3.0222,-3.0206,-3.0178,-3.0098,-3.0088,-3.0018,-2.9996,-2.9966,-2.994,-2.9884,0,0]},{"header":{"parameterUnit":"m.s-1","parameterCategory":1,"la1":30.2992,"la2":30.254,"lo1":-89.0895,"lo2":-89.0443,"dy":0.0025,"dx":0.0025,"nx":19,"ny":19,"refTime":"2026-03-25T09:00:00:Z","depth":0,"parameterNumber":3,"parameterNumberName":"V-component_of_WINDS"},"data":[0,0,0,2.4178,2.4179,2.423,2.4231,2.4289,2.429,0,0,0,0,0,0,0,0,0,0,0,2.416,2.416,2.4178,2.418,2.423,2.4231,2.4289,2.429,0,0,0,0,0,0,0,0,0,0,0,2.416,2.416,2.4161,2.418,2.423,2.4231,2.4289,2.4253,0,0,0,0,0,0,0,0,0,0,2.4204,2.4184,2.416,2.4161,2.418,2.423,2.4231,2.4251,2.4255,2.4264,0,2.4271,0,2.4281,2.4293,2.4294,0,0,0,2.4182,2.4181,2.4198,2.4161,2.418,2.423,2.4208,2.4253,2.4258,2.4269,2.4272,2.4274,2.4282,2.4294,2.4294,2.4337,2.4337,0,0,2.4179,2.4167,2.4195,2.4201,2.4193,2.4206,2.421,2.4256,2.4258,2.4272,2.4276,2.4283,2.4294,2.4294,2.4337,2.4337,0,0,0,2.4169,2.4165,2.4181,2.4198,2.4208,2.4208,2.4212,2.4256,2.4263,2.4276,2.4284,2.4294,2.4295,2.4337,2.4337,2.433,0,0,0,2.4168,2.416,2.418,2.4173,2.4207,2.4233,2.4211,2.4259,2.4265,2.4284,2.4294,2.4296,2.4337,2.4337,2.433,2.4328,0,0,0,2.4158,2.4158,2.4165,2.4172,2.4194,2.4232,2.4241,2.4261,2.427,2.4294,2.4296,2.4337,2.4337,2.433,2.4328,2.4336,0,0,0,2.4143,2.4157,2.4164,2.4183,2.4193,2.4228,2.4241,2.4268,2.4287,2.4295,2.4337,2.4337,2.433,2.4328,2.4336,2.434,2.4341,0,0,2.4154,2.4158,2.417,2.4178,2.4208,2.4221,2.4251,2.428,2.4293,2.4321,2.4322,2.433,2.4328,2.4336,2.435,2.435,0,0,0,2.4169,2.4178,2.4189,2.4207,2.423,2.425,2.4276,2.4287,2.4312,2.4305,2.4335,2.4335,2.434,2.4342,2.4343,2.4348,2.4338,2.4338,2.4338,2.4167,2.4184,2.4204,2.4227,2.4245,2.4272,2.4288,2.4307,2.4318,2.4325,2.4333,2.434,2.4342,2.4342,2.4347,2.4337,2.4337,2.4337,2.4337,2.4184,2.4198,2.4213,2.4239,2.4256,2.4277,2.4304,2.4311,2.4333,2.4334,2.434,2.434,2.4343,2.4348,2.4337,2.4337,2.4337,2.4337,2.4337,2.4184,2.4194,2.4207,2.4236,2.4257,2.4279,2.43,2.4315,2.4329,2.4334,2.4344,2.4344,2.4346,2.4338,2.4338,2.4338,2.4338,2.4338,2.4338,2.4178,2.4194,2.421,2.4236,2.425,2.427,2.4298,2.4312,2.4332,2.4341,2.4341,2.4351,2.434,2.4337,2.4338,2.4338,2.4338,2.4338,2.4338,2.4189,2.4189,2.4213,2.4228,2.426,2.4279,2.4298,2.4325,2.4339,2.4349,2.4358,2.4348,2.4353,2.4352,2.435,2.4355,2.4355,2.4355,2.4355,2.4188,2.4193,2.4221,2.4243,2.4266,2.4286,2.4312,2.4334,2.4356,2.4366,2.4368,2.4365,2.4365,2.437,2.4369,2.4367,2.4376,2.4376,2.4376,2.4195,2.4203,2.4223,2.4245,2.4272,2.4293,2.4319,2.4343,2.4368,2.4377,2.4374,2.4373,2.437,2.4368,2.4376,2.4375,2.4371,0,0]}]]